When you browse on this site, cookies collect data to enhance your experience and personalize the content and advertising you see.
Visit our Privacy Policy to learn more. By continuing to use the site, you agree to this use of cookies and data.
  • Em Portugal
  • Lista de países
  • Para 7 dias
  • Temperatura da água
  • Mapa do tempo
  • Widgets de tempo
  • user-avatar
    Iniciar Sessão

    Previsão horária em Baalbek

    Hoje, 28 Março, Sábado

    Tempo Temperatura Precipitação Vento Pressão Humidade
    00:00 +10°C° 0.1 mm 2 m/s 655 mmHg 62%
    01:00 +10°C° 0.1 mm 2 m/s 655 mmHg 66%
    02:00 +10°C° 0 mm 2 m/s 654 mmHg 75%
    03:00 +9°C° 0.1 mm 2 m/s 654 mmHg 75%
    04:00 +9°C° 0.1 mm 2 m/s 654 mmHg 76%
    05:00 +9°C° 0.1 mm 2 m/s 655 mmHg 77%
    06:00 +9°C° 0.1 mm 3 m/s 655 mmHg 74%
    07:00 +10°C° 0.1 mm 3 m/s 655 mmHg 72%
    08:00 +11°C° 0 mm 4 m/s 656 mmHg 68%
    09:00 +10°C° 0.1 mm 5 m/s 656 mmHg 63%
    10:00 +11°C° 0.1 mm 6 m/s 656 mmHg 58%
    11:00 +12°C° 0.1 mm 7 m/s 657 mmHg 53%
    12:00 +12°C° 0 mm 7 m/s 656 mmHg 52%
    13:00 +12°C° 0 mm 7 m/s 656 mmHg 51%
    14:00 +11°C° 0 mm 7 m/s 656 mmHg 51%
    15:00 +10°C° 0 mm 6 m/s 656 mmHg 57%
    16:00 +9°C° 0 mm 6 m/s 655 mmHg 63%
    17:00 +8°C° 0 mm 6 m/s 655 mmHg 69%
    18:00 +7°C° 0 mm 5 m/s 655 mmHg 69%
    19:00 +6°C° 0 mm 4 m/s 655 mmHg 70%
    20:00 +7°C° 0 mm 3 m/s 655 mmHg 70%
    21:00 +5°C° 0 mm 4 m/s 655 mmHg 73%
    22:00 +5°C° 0 mm 4 m/s 655 mmHg 75%
    23:00 +4°C° 0 mm 4 m/s 655 mmHg 78%

    Amanhã, 29 Março, Domingo

    Tempo Temperatura Precipitação Vento Pressão Humidade
    00:00 +5°C° 0 mm 4 m/s 655 mmHg 80%
    01:00 +5°C° 0 mm 5 m/s 655 mmHg 83%
    02:00 +4°C° 0 mm 6 m/s 655 mmHg 85%
    03:00 +4°C° 0.1 mm 6 m/s 655 mmHg 86%
    04:00 +3°C° 0.1 mm 5 m/s 655 mmHg 87%
    05:00 +3°C° 0.1 mm 5 m/s 655 mmHg 88%
    06:00 +4°C° 0 mm 6 m/s 655 mmHg 84%
    07:00 +4°C° 0 mm 6 m/s 655 mmHg 80%
    08:00 +5°C° 0 mm 6 m/s 655 mmHg 76%
    09:00 +5°C° 0 mm 6 m/s 655 mmHg 74%
    10:00 +6°C° 0 mm 7 m/s 655 mmHg 71%
    11:00 +8°C° 0 mm 7 m/s 656 mmHg 69%
    12:00 +8°C° 0 mm 7 m/s 655 mmHg 67%
    13:00 +9°C° 0 mm 8 m/s 655 mmHg 66%
    14:00 +9°C° 0 mm 8 m/s 655 mmHg 64%
    15:00 +7°C° 0 mm 9 m/s 654 mmHg 68%
    16:00 +7°C° 0 mm 9 m/s 654 mmHg 71%
    17:00 +6°C° 0 mm 10 m/s 654 mmHg 75%
    18:00 +5°C° 0 mm 9 m/s 654 mmHg 78%
    19:00 +5°C° 0 mm 9 m/s 654 mmHg 81%
    20:00 +5°C° 0 mm 9 m/s 654 mmHg 84%
    21:00 +3°C° 0 mm 9 m/s 654 mmHg 84%
    22:00 +3°C° 0 mm 9 m/s 654 mmHg 84%
    23:00 +3°C° 0 mm 9 m/s 654 mmHg 84%

    Depois de amanhã, 30 Março, Segunda-feira

    Tempo Temperatura Precipitação Vento Pressão Humidade
    00:00 +3°C° 0.1 mm 9 m/s 654 mmHg 86%
    01:00 +3°C° 0.1 mm 9 m/s 654 mmHg 89%
    02:00 +5°C° 0.1 mm 9 m/s 653 mmHg 91%
    03:00 +5°C° 0.5 mm 9 m/s 654 mmHg 90%
    04:00 +5°C° 0.5 mm 9 m/s 654 mmHg 90%
    05:00 +5°C° 0.5 mm 10 m/s 654 mmHg 89%
    06:00 +5°C° 0.2 mm 10 m/s 655 mmHg 82%
    07:00 +6°C° 0.2 mm 9 m/s 655 mmHg 76%
    08:00 +7°C° 0.2 mm 9 m/s 656 mmHg 70%
    09:00 +8°C° 0 mm 11 m/s 656 mmHg 63%
    10:00 +9°C° 0 mm 12 m/s 657 mmHg 56%
    11:00 +12°C° 0 mm 14 m/s 657 mmHg 50%
    12:00 +12°C° 0 mm 13 m/s 657 mmHg 49%
    13:00 +12°C° 0 mm 13 m/s 657 mmHg 48%
    14:00 +12°C° 0 mm 13 m/s 657 mmHg 48%
    15:00 +12°C° 0 mm 11 m/s 657 mmHg 48%
    16:00 +11°C° 0 mm 9 m/s 657 mmHg 48%
    17:00 +11°C° 0 mm 7 m/s 657 mmHg 48%
    18:00 +10°C° 0 mm 6 m/s 657 mmHg 53%
    19:00 +9°C° 0 mm 5 m/s 657 mmHg 59%
    20:00 +8°C° 0 mm 4 m/s 657 mmHg 64%
    21:00 +8°C° 0 mm 4 m/s 657 mmHg 62%
    22:00 +8°C° 0 mm 4 m/s 657 mmHg 61%
    23:00 +8°C° 0 mm 4 m/s 657 mmHg 60%

    31 Março, Terça-feira

    Tempo Temperatura Precipitação Vento Pressão Humidade
    00:00 +9°C° 0 mm 3 m/s 656 mmHg 62%
    01:00 +9°C° 0 mm 2 m/s 656 mmHg 65%
    02:00 +10°C° 0 mm 1 m/s 655 mmHg 67%
    03:00 +9°C° 0 mm 2 m/s 656 mmHg 64%
    04:00 +9°C° 0 mm 2 m/s 656 mmHg 61%
    05:00 +9°C° 0 mm 3 m/s 656 mmHg 59%
    06:00 +11°C° 0 mm 3 m/s 656 mmHg 55%
    07:00 +12°C° 0 mm 3 m/s 656 mmHg 51%
    08:00 +14°C° 0 mm 3 m/s 657 mmHg 48%
    09:00 +15°C° 0 mm 5 m/s 657 mmHg 45%
    10:00 +16°C° 0 mm 6 m/s 657 mmHg 42%
    11:00 +17°C° 0 mm 7 m/s 657 mmHg 39%
    12:00 +17°C° 0.2 mm 8 m/s 657 mmHg 42%
    13:00 +16°C° 0.2 mm 9 m/s 656 mmHg 45%
    14:00 +16°C° 0.2 mm 10 m/s 655 mmHg 48%
    15:00 +16°C° 0 mm 9 m/s 655 mmHg 47%
    16:00 +15°C° 0 mm 9 m/s 655 mmHg 47%
    17:00 +15°C° 0 mm 8 m/s 654 mmHg 47%
    18:00 +14°C° 0 mm 7 m/s 654 mmHg 53%
    19:00 +11°C° 0 mm 6 m/s 654 mmHg 60%
    20:00 +10°C° 0 mm 4 m/s 654 mmHg 66%
    21:00 +8°C° 0 mm 5 m/s 654 mmHg 64%
    22:00 +7°C° 0 mm 5 m/s 654 mmHg 63%
    23:00 +7°C° 0 mm 5 m/s 654 mmHg 62%

    1 Abril, Quarta-feira

    Tempo Temperatura Precipitação Vento Pressão Humidade
    00:00 +6°C° 0 mm 5 m/s 654 mmHg 69%
    01:00 +6°C° 0 mm 5 m/s 654 mmHg 76%
    02:00 +5°C° 0 mm 4 m/s 653 mmHg 84%
    03:00 +6°C° 0 mm 4 m/s 653 mmHg 85%
    04:00 +6°C° 0 mm 5 m/s 654 mmHg 86%
    05:00 +6°C° 0 mm 5 m/s 654 mmHg 88%
    06:00 +6°C° 0.1 mm 5 m/s 654 mmHg 86%
    07:00 +7°C° 0.1 mm 5 m/s 654 mmHg 85%
    08:00 +7°C° 0.1 mm 5 m/s 654 mmHg 83%
    09:00 +8°C° 0.1 mm 6 m/s 655 mmHg 82%
    10:00 +8°C° 0.1 mm 6 m/s 655 mmHg 82%
    11:00 +9°C° 0.1 mm 6 m/s 655 mmHg 81%
    12:00 +9°C° 0.1 mm 6 m/s 655 mmHg 80%
    13:00 +9°C° 0.1 mm 6 m/s 655 mmHg 78%
    14:00 +9°C° 0.1 mm 6 m/s 655 mmHg 76%
    15:00 +9°C° 0 mm 6 m/s 655 mmHg 78%
    16:00 +9°C° 0 mm 5 m/s 655 mmHg 80%
    17:00 +9°C° 0 mm 5 m/s 654 mmHg 82%
    18:00 +8°C° 0 mm 4 m/s 655 mmHg 83%
    19:00 +8°C° 0 mm 4 m/s 655 mmHg 85%
    20:00 +8°C° 0 mm 3 m/s 655 mmHg 86%
    21:00 +8°C° 0 mm 3 m/s 655 mmHg 86%
    22:00 +7°C° 0 mm 3 m/s 655 mmHg 86%
    23:00 +7°C° 0 mm 3 m/s 655 mmHg 86%

    2 Abril, Quinta-feira

    Tempo Temperatura Precipitação Vento Pressão Humidade
    00:00 +7°C° 0 mm 3 m/s 655 mmHg 86%
    01:00 +7°C° 0 mm 3 m/s 655 mmHg 86%
    02:00 +7°C° 0 mm 2 m/s 655 mmHg 86%
    03:00 +7°C° 0 mm 2 m/s 655 mmHg 84%
    04:00 +7°C° 0 mm 2 m/s 655 mmHg 83%
    05:00 +6°C° 0 mm 2 m/s 655 mmHg 81%
    06:00 +8°C° 0 mm 2 m/s 656 mmHg 76%
    07:00 +9°C° 0 mm 2 m/s 656 mmHg 71%
    08:00 +10°C° 0 mm 3 m/s 657 mmHg 65%
    09:00 +11°C° 0 mm 3 m/s 657 mmHg 62%
    10:00 +12°C° 0 mm 3 m/s 657 mmHg 59%
    11:00 +13°C° 0 mm 4 m/s 658 mmHg 55%
    12:00 +13°C° 0 mm 4 m/s 658 mmHg 56%
    13:00 +13°C° 0 mm 4 m/s 657 mmHg 57%
    14:00 +14°C° 0 mm 4 m/s 657 mmHg 57%
    15:00 +13°C° 0 mm 4 m/s 657 mmHg 58%
    16:00 +13°C° 0 mm 4 m/s 657 mmHg 58%
    17:00 +12°C° 0 mm 4 m/s 656 mmHg 58%
    18:00 +11°C° 0 mm 3 m/s 656 mmHg 60%
    19:00 +10°C° 0 mm 3 m/s 656 mmHg 61%
    20:00 +9°C° 0 mm 2 m/s 656 mmHg 63%
    21:00 +9°C° 0 mm 2 m/s 656 mmHg 57%
    22:00 +9°C° 0 mm 2 m/s 656 mmHg 52%
    23:00 +8°C° 0 mm 2 m/s 656 mmHg 46%
    Mostrar mais